Weather History for South Lake Tahoe, CA

Change the Weather History Date:

Thursday, December 6, 2012

  Actual Average Record
Temperature  
Mean Temperature 40 °F 31 °F  
Max Temperature 51 °F 44 °F 56 °F (1958)
Min Temperature 29 °F 17 °F -6 °F (1998)
Degree Days  
Heating Degree Days 25 34  
Month to date heating degree days 139 202  
Since 1 July heating degree days 1897 2295  
Cooling Degree Days 0 0  
Month to date cooling degree days 0 0  
Year to date cooling degree days 30 31  
Moisture  
Dew Point 30 °F    
Average Humidity 69    
Maximum Humidity 92    
Minimum Humidity 46    
Precipitation  
Precipitation 0.00 in - 1.80 in (1966)
Month to date precipitation 3.10  
Year to date precipitation 19.23  
Sea Level Pressure  
Sea Level Pressure 30.12 in    
Wind  
Wind Speed 1 mph (South)    
Max Wind Speed 13 mph    
Max Gust Speed 15 mph    
Visibility 7 miles    
Events Fog    
T = Trace of Precipitation, MM = Missing Value Source: NWS Daily Summary

Daily Weather History Graph

Daily Weather History Graph

Search for Another Location

Airport:

Trip Planner

Search our weather history database for the weather conditions in past years. The results will help you decide how hot, cold, wet, or windy it might be!

Date:

Astronomy

Dec. 06, 2012 Rise Set
Actual Time 7:04 AM PST 4:37 PM PST
Civil Twilight 6:35 AM PST 5:07 PM PST
Nautical Twilight 6:01 AM PST 5:40 PM PST
Astronomical Twilight 5:29 AM PST 6:12 PM PST
Moon No Moon Rise 12:03 PM PST (12/6)
Length of Visible Light 10h 32m
Length of Day
9h 32m
Waning Gibbous, 48% of the Moon is Illuminated
Dec 6
Waning Gibbous
Dec 13
New
Dec 19
First Quarter
Dec 28
Full
Jan 4
Last Quarter

Hourly Weather History & Observations

Time (PST) Temp. Windchill Dew Point Humidity Pressure Visibility Wind Dir Wind Speed Gust Speed Precip Events Conditions
12:13 AM 35.6 °F - 32.0 °F 87% 30.16 in 6.0 mi Calm Calm - N/A   Mostly Cloudy
12:33 AM 33.8 °F - 30.2 °F 87% 30.16 in 8.0 mi Calm Calm - N/A   Scattered Clouds
12:44 AM 33.8 °F - 30.2 °F 87% 30.16 in 2.0 mi Calm Calm - N/A   Partly Cloudy
12:49 AM 33.8 °F - 30.2 °F 87% 30.16 in 1.0 mi Calm Calm - N/A   Mist
12:53 AM 34.0 °F - 30.9 °F 89% 30.10 in 1.2 mi Calm Calm - N/A   Scattered Clouds
12:57 AM 33.8 °F - 30.2 °F 87% 30.15 in 2.5 mi Calm Calm - N/A   Mostly Cloudy
1:10 AM 33.8 °F - 30.2 °F 87% 30.15 in 0.8 mi Calm Calm - N/A   Mist
1:30 AM 33.8 °F - 30.2 °F 87% 30.15 in 1.0 mi Calm Calm - N/A   Mist
1:37 AM 33.8 °F - 30.2 °F 87% 30.15 in 0.5 mi Calm Calm - N/A Fog Fog
1:53 AM 32.0 °F - 30.0 °F 92% 30.11 in 0.8 mi Calm Calm - N/A   Mist
2:53 AM 32.0 °F - 28.9 °F 88% 30.09 in 0.8 mi Calm Calm - N/A   Mist
3:00 AM 32.0 °F - 28.4 °F 87% 30.14 in 2.5 mi Calm Calm - N/A   Mostly Cloudy
3:04 AM 32.0 °F - 28.4 °F 87% 30.13 in 4.0 mi Calm Calm - N/A   Scattered Clouds
3:10 AM 32.0 °F 28.7 °F 28.4 °F 87% 30.13 in 1.5 mi South 3.5 mph - N/A   Scattered Clouds
3:12 AM 32.0 °F 28.7 °F 28.4 °F 87% 30.13 in 0.8 mi South 3.5 mph - N/A   Mist
3:37 AM 32.0 °F - 30.2 °F 93% 30.13 in 2.0 mi Calm Calm - N/A   Mostly Cloudy
3:41 AM 33.8 °F - 28.4 °F 81% 30.13 in 5.0 mi Calm Calm - N/A   Mostly Cloudy
3:53 AM 32.0 °F 28.7 °F 28.9 °F 88% 30.09 in 7.0 mi South 3.5 mph - N/A   Partly Cloudy
4:08 AM 32.0 °F - 28.4 °F 87% 30.13 in 4.0 mi Calm Calm - N/A   Mostly Cloudy
4:18 AM 32.0 °F - 28.4 °F 87% 30.13 in 7.0 mi Calm Calm - N/A   Mostly Cloudy
4:29 AM 32.0 °F 28.7 °F 28.4 °F 87% 30.14 in 10.0 mi South 3.5 mph - N/A   Mostly Cloudy
4:53 AM 32.0 °F - 28.0 °F 85% 30.08 in 10.0 mi Calm Calm - N/A   Partly Cloudy
5:53 AM 32.0 °F - 28.9 °F 88% 30.09 in 10.0 mi Calm Calm - N/A   Partly Cloudy
6:25 AM 30.2 °F 26.7 °F 28.4 °F 93% 30.13 in 10.0 mi South 3.5 mph - N/A   Partly Cloudy
6:53 AM 30.9 °F 27.5 °F 28.0 °F 89% 30.10 in 10.0 mi SSW 3.5 mph - N/A   Partly Cloudy
7:53 AM 30.9 °F - 27.0 °F 85% 30.11 in 10.0 mi Calm Calm - N/A   Clear
8:53 AM 35.1 °F - 32.0 °F 89% 30.10 in 10.0 mi Calm Calm - N/A   Clear
9:53 AM 39.9 °F - 37.0 °F 89% 30.10 in 10.0 mi Calm Calm - N/A   Clear
10:53 AM 46.9 °F - 35.1 °F 63% 30.08 in 10.0 mi South 8.1 mph - N/A   Clear
11:53 AM 48.0 °F - 34.0 °F 58% 30.05 in 10.0 mi South 11.5 mph - N/A   Clear
12:53 PM 50.0 °F - 32.0 °F 50% 30.04 in 10.0 mi South 6.9 mph - N/A   Clear
1:53 PM 50.0 °F - 30.0 °F 46% 30.02 in 10.0 mi SSW 9.2 mph - N/A   Clear
2:53 PM 48.9 °F - 30.9 °F 50% 30.03 in 10.0 mi Calm Calm - N/A   Clear
3:53 PM 42.1 °F - 33.1 °F 70% 30.05 in 10.0 mi Calm Calm - N/A   Clear
4:53 PM 39.0 °F 36.8 °F 33.1 °F 79% 30.06 in 10.0 mi SW 3.5 mph - N/A   Clear
5:53 PM 35.1 °F 32.2 °F 30.9 °F 85% 30.09 in 10.0 mi South 3.5 mph - N/A   Clear
6:53 PM 33.1 °F - 28.9 °F 85% 30.14 in 10.0 mi Calm Calm - N/A   Clear
7:53 PM 30.9 °F - 28.0 °F 89% 30.18 in 10.0 mi Calm Calm - N/A   Clear
8:53 PM 30.9 °F - 27.0 °F 85% 30.17 in 10.0 mi Calm Calm - N/A   Clear
9:53 PM 30.0 °F 26.5 °F 26.1 °F 85% 30.16 in 9.0 mi South 3.5 mph - N/A   Clear
10:53 PM 30.0 °F - 25.0 °F 82% 30.14 in 9.0 mi Calm Calm - N/A   Clear
11:53 PM 30.0 °F 26.5 °F 25.0 °F 82% 30.13 in 10.0 mi South 3.5 mph - N/A   Clear